Regional Weather Roundup
Issued by NWS

Home | Current Version | Previous Version | Graphics & Text | Print | Product List | Glossary On
Versions: 1 2 3 4 5 6 7 8 9 10 11 12 13 14 15 16 17 18 19 20 21 22 23 24 25 26 27 28 29 30 31 32 33 34 35 36 37 38 39 40 41 42 43 44 45 46 47 48 49 50
000
ASUS43 KMPX 162210
RWRMN
WEATHER ROUNDUP FOR MINNESOTA
NATIONAL WEATHER SERVICE TWIN CITIES/CHANHASSEN MN
500 PM CDT TUE SEP 16 2014


NOTE: "FAIR" INDICATES FEW OR NO CLOUDS BELOW 12,000 FEET WITH NO
SIGNIFICANT WEATHER AND/OR OBSTRUCTIONS TO VISIBILITY. N/A MEANS
CURRENT SKY AND/OR WEATHER CONDITIONS ARE NOT AVAILABLE.

MNZ060>063-068>070-162300-
   Twin Cities Metro

CITY           SKY/WX    TMP DP  RH WIND       PRES   REMARKS
TWIN CITIES    MOSUNNY   66  42  41 SW12      30.05F
ST PAUL        SUNNY     66  44  45 S8        30.06F
CRYSTAL        SUNNY     68  42  38 SW9       30.04F
BLAINE         MOSUNNY   68  43  40 SW8       30.05F
LAKEVILLE      SUNNY     64  45  48 W8        30.05F
EDEN PRAIRIE   SUNNY     68  44  42 SW6       30.04F
SOUTH ST PAUL  SUNNY     67  41  39 SW7       30.05F
LAKE ELMO      FAIR      64  45  48 SW7       30.06F
$$
MNZ001>005-007-008-013>017-022>024-027-028-162300-
   Northwest Minnesota

CITY           SKY/WX    TMP DP  RH WIND       PRES   REMARKS
BEMIDJI        SUNNY     67  41  39 SW6       29.98F
HALLOCK        SUNNY     73  43  33 NE7       29.91F
ROSEAU         MOSUNNY   61  50  67 E7        29.96F
WARROAD        MOSUNNY   59  50  72 E3        29.97F
THIEF RVR FALL SUNNY     72  41  33 SW8       29.95F
CROOKSTON      SUNNY     72  43  35 S9        29.95F
FOSSTON        SUNNY     72  43  35 W7        29.98F
DETROIT LAKES  SUNNY     66  37  34 S8        30.00F
MOORHEAD       SUNNY     72  28  20 SE3       29.97F
PARK RAPIDS    SUNNY     67  36  31 SW9       30.00F
MAHNOMEN       FAIR      68  38  33 SE6       29.98S
$$
MNZ006-009>011-018-025>026-162300-
   North Central Minnesota

CITY           SKY/WX    TMP DP  RH WIND       PRES   REMARKS
BAUDETTE       CLOUDY    58  49  72 CALM      29.97F
FLAG ISLAND    PTSUNNY   61  52  72 S5        29.95F
INTL FALLS     CLOUDY    58  49  72 W3        29.98S
WASKISH        SUNNY     63  50  63 CALM      29.96F
BIG FORK       MOSUNNY   66  41  39 W5        29.98S
LONGVILLE      SUNNY     68  41  37 S8        30.00F
GRAND RAPIDS   SUNNY     66  39  37 SW6       29.99F
CRANE LAKE     PTSUNNY   61  46  59 CALM      29.99F
ORR            PTSUNNY   63  45  51 CALM      29.96S
COOK           PTSUNNY   64  45  48 NW5       29.98S
WALKER         FAIR      67  39  35 S7        29.99S
$$
MNZ012-019>021-037-162300-
   Northeast Minnesota

CITY           SKY/WX    TMP DP  RH WIND       PRES   REMARKS
DULUTH         MOSUNNY   68  40  35 W16       30.00S
ELY            PTSUNNY   61  46  59 NE6       29.97S
HIBBING        CLOUDY    68  43  40 W7        29.98F
EVELETH        SUNNY     63  43  48 SW6G13    29.99F
DULUTH HARBOR  SUNNY     70  45  40 SW14      29.99F
TWO HARBORS    MOSUNNY   68  46  45 W14G20    29.96S
SILVER BAY     MOSUNNY   64  48  55 W3        29.95S
GRAND MARAIS     N/A     57  49  74 CALM      29.95S
G MARAIS ARPRT PTSUNNY   59  43  55 NW9       29.99S
$$
MNZ029>031-032-039>041-046>048-054>057-064-162300-
   West Central Minnesota

CITY           SKY/WX    TMP DP  RH WIND       PRES   REMARKS
FERGUS FALLS   SUNNY     70  36  28 S9        29.98F
WHEATON        MOSUNNY   66  46  48 SE10      29.99S
MORRIS         MOSUNNY   70  43  37 S12       29.99F
ALEXANDRIA     CLOUDY    66  42  41 S7        30.02F
ELBOW LAKE     CLOUDY    67  44  43 SE9       29.99F
GLENWOOD       PTSUNNY   66  45  45 SE6       30.02F
APPLETON       PTSUNNY   70  45  40 S7        29.99F
BENSON         PTSUNNY   68  45  42 S6        30.00F
ORTONVILLE     PTSUNNY   68  46  45 S7        29.98S
MADISON        PTSUNNY   72  48  43 S8        29.99S
WILLMAR        FAIR      70  39  32 S6        30.03F
$$
MNZ033>034-036-042>043-049>051-058-059-162300-
   Central Minnesota

CITY           SKY/WX    TMP DP  RH WIND       PRES   REMARKS
ST CLOUD       SUNNY     69  41  36 SW8G16    30.03F
SAUK CENTRE    MOCLDY    66  44  44 S8        30.03F
PAYNESVILLE    PTSUNNY   63  42  45 S3        30.03F
AITKIN         SUNNY     70  43  37 S9        30.00F
PINE RIVER     SUNNY     66  43  42 SW10      30.03F
BRAINERD       SUNNY     65  41  41 S10       30.02F
STAPLES        SUNNY     64  37  36 SW7       30.01F
LONG PRAIRIE   FAIR      64  41  42 S8        30.02F
LITTLE FALLS   SUNNY     66  37  34 S8        30.03F
LITCHFIELD     MOSUNNY   66  45  45 CALM      30.04F
BUFFALO        SUNNY     66  42  41 SW6       30.05F
MAPLE LAKE     SUNNY     67  47  48 SW5       30.05F
$$
MNZ037-044-045-052-053-162300-
   East Central Minnesota

CITY           SKY/WX    TMP DP  RH WIND       PRES   REMARKS
PRINCETON      SUNNY     68  45  42 S7        30.05S
MORA           SUNNY     64  41  42 S6        30.05F
CAMBRIDGE      SUNNY     68  46  45 SW5       30.03F
RUSH CITY      SUNNY     66  43  43 SW5       30.05F
MOOSE LAKE     SUNNY     66  39  37 SW7       30.00F
HINCKLEY       FAIR      66  45  45 SW9       30.04F
CLOQUET        SUNNY     66  39  37 SW9       30.01S
MCGREGOR       SUNNY     66  43  42 S12       30.02S
$$
MNZ071>073-080-081-089-090-097-098-162300-
   Southwest Minnesota

CITY           SKY/WX    TMP DP  RH WIND       PRES   REMARKS
MONTEVIDEO     CLOUDY    70  46  43 S5        30.01F
GRANITE FALLS  PTSUNNY   69  46  44 S10       30.02F
CANBY          PTSUNNY   70  48  45 S12       30.00F
MARSHALL       CLOUDY    66  45  45 S12       30.00F
REDWOOD FALLS  PTSUNNY   69  44  40 S7        30.02F
OLIVIA         MOSUNNY   68  46  45 S7        30.02F
PIPESTONE      CLOUDY    64  46  52 S15       30.01F
WINDOM         SUNNY     68  45  42 S8        30.04F
WORTHINGTON    CLOUDY    66  45  45 S12G17    30.04F
JACKSON        SUNNY     68  43  40 SW9       30.06F
TRACY          CLOUDY    67  48  49 S7        30.02F
SLAYTON        CLOUDY    66  44  44 S3        30.03F
$$
MNZ065>067-074>077-082>085-091>093-162300-
   South Central Minnesota

CITY           SKY/WX    TMP DP  RH WIND       PRES   REMARKS
MANKATO        SUNNY     66  41  39 SW8       30.05F
NEW ULM        SUNNY     66  46  48 S6        30.04F
ST JAMES       SUNNY     70  41  35 S8        30.06S
FAIRMONT       SUNNY     68  41  37 S8        30.06F
GLENCOE        SUNNY     68  39  34 S6        30.03F
FARIBAULT      SUNNY     70  37  30 SW3       30.06F
OWATONNA       SUNNY     66  43  42 SW7       30.06F
WASECA         SUNNY     64  36  34 SW7       30.08F
ALBERT LEA     SUNNY     66  43  42 S5        30.07F
$$
MNZ078>079-086>088-094>096-162300-
   Southeast Minnesota

CITY           SKY/WX    TMP DP  RH WIND       PRES   REMARKS
ROCHESTER      SUNNY     65  42  43 SW9       30.09F
RED WING       SUNNY     68  39  34 W7        30.05F
STANTON        SUNNY     67  42  40 W6        30.05F
DODGE CENTER   SUNNY     64  45  48 SW6       30.07F
WINONA         SUNNY     66  45  45 NW6       30.08F
AUSTIN         SUNNY     64  45  48 SW5       30.07F
PRESTON        SUNNY     64  48  57 SW6       30.09F
$$
ABBREVIATIONS USED IN REMARKS
   TC - TEMPERATURES IN CELSIUS
  WCI - WIND CHILL INDEX
   HX - HEAT INDEX
  VSB - VISIBILITY
$$



USA.gov is the U.S. government's official web portal to all federal, state and local government web resources and services.